QPF
0.01 0.02 0.03 0.03 0.01 0.00 0.00 0.00 0.00 0.00 0.00 0.00 0.00 0.00 0.00 0.00 0.00 0.00 0.00 0.00 0.00 0.00 0.00 0.00 0.01 0.01 0.01 0.01 0.01 0.01 0.01 0.02 0.01 0.01 0.01 0.01 0.01 0.01 0.00 0.00 0.00 0.00 0.00 0.00 0.00 0.00 0.00 0.01 0.01
0.02 0.04 0.03 0.03 0.00 0.00 0.00 0.00 0.00 0.00 0.00 0.00 0.00 0.00 0.00 0.00 0.00 0.00 0.00 0.00 0.00 0.00 0.00 0.00 0.01 0.01 0.01 0.01 0.01 0.01 0.02 0.01 0.01 0.01 0.01 0.01 0.00 0.00 0.00 0.00 0.00 0.00 0.00 0.00 0.00 0.00 0.01 0.01 0.01
0.02 0.03 0.03 0.01 0.00 0.00 0.00 0.00 0.00 0.00 0.00 0.00 0.00 0.00 0.00 0.00 0.00 0.00 0.00 0.00 0.00 0.00 0.00 0.00 0.01 0.01 0.01 0.01 0.01 0.02 0.02 0.01 0.01 0.01 0.01 0.00 0.00 0.00 0.00 0.00 0.01 0.00 0.00 0.00 0.00 0.00 0.00 0.01 0.01
0.02 0.03 0.03 0.01 0.00 0.00 0.00 0.00 0.00 0.00 0.00 0.00 0.00 0.00 0.00 0.00 0.00 0.00 0.00 0.00 0.00 0.00 0.00 0.00 0.00 0.00 0.00 0.01 0.01 0.02 0.01 0.01 0.01 0.01 0.01 0.00 0.00 0.00 0.00 0.01 0.01 0.00 0.00 0.00 0.00 0.00 0.00 0.00 0.01
0.02 0.02 0.01 0.00 0.00 0.00 0.00 0.00 0.00 0.00 0.00 0.00 0.00 0.00 0.00 0.00 0.00 0.00 0.00 0.00 0.00 0.00 0.00 0.00 0.00 0.00 0.00 0.00 0.01 0.02 0.01 0.01 0.01 0.01 0.00 0.00 0.00 0.00 0.00 0.01 0.00 0.00 0.00 0.00 0.00 0.00 0.00 0.00 0.01
0.01 0.01 0.00 0.00 0.00 0.00 0.00 0.00 0.00 0.00 0.00 0.00 0.00 0.00 0.00 0.00 0.00 0.00 0.00 0.00 0.00 0.00 0.00 0.00 0.00 0.00 0.00 0.00 0.01 0.01 0.01 0.01 0.01 0.01 0.00 0.00 0.00 0.00 0.00 0.00 0.00 0.00 0.00 0.00 0.00 0.01 0.00 0.00 0.01
0.01 0.00 0.00 0.00 0.01 0.00 0.01 0.00 0.00 0.00 0.00 0.01 0.01 0.00 0.00 0.00 0.00 0.00 0.00 0.00 0.00 0.00 0.00 0.00 0.00 0.00 0.00 0.00 0.00 0.01 0.01 0.01 0.01 0.01 0.00 0.00 0.00 0.00 0.00 0.00 0.00 0.01 0.01 0.01 0.01 0.01 0.01 0.01 0.01
0.00 0.00 0.01 0.01 0.02 0.01 0.01 0.00 0.01 0.01 0.01 0.01 0.01 0.01 0.00 0.00 0.00 0.00 0.01 0.01 0.01 0.01 0.01 0.00 0.01 0.00 0.01 0.00 0.01 0.01 0.01 0.01 0.01 0.01 0.01 0.00 0.00 0.00 0.00 0.00 0.00 0.00 0.00 0.00 0.01 0.01 0.00 0.01 0.01
0.01 0.00 0.01 0.02 0.02 0.01 0.01 0.01 0.01 0.01 0.01 0.01 0.01 0.01 0.00 0.00 0.00 0.01 0.02 0.02 0.02 0.01 0.01 0.01 0.01 0.01 0.02 0.01 0.01 0.01 0.02 0.01 0.02 0.02 0.01 0.01 0.00 0.00 0.00 0.00 0.00 0.00 0.00 0.00 0.00 0.00 0.00 0.00 0.01
0.01 0.01 0.01 0.02 0.02 0.02 0.01 0.02 0.02 0.01 0.01 0.01 0.00 0.01 0.01 0.01 0.03 0.05 0.06 0.07 0.06 0.06 0.06 0.03 0.02 0.03 0.03 0.02 0.01 0.01 0.01 0.00 0.01 0.01 0.01 0.00 0.00 0.00 0.00 0.00 0.00 0.00 0.00 0.00 0.00 0.00 0.00 0.00 0.00
0.01 0.02 0.02 0.01 0.02 0.02 0.02 0.02 0.03 0.02 0.01 0.01 0.01 0.01 0.01 0.03 0.05 0.07 0.09 0.12 0.14 0.14 0.12 0.08 0.05 0.04 0.03 0.02 0.01 0.01 0.01 0.01 0.00 0.00 0.01 0.01 0.00 0.00 0.00 0.00 0.00 0.00 0.00 0.00 0.00 0.00 0.00 0.00 0.00
0.01 0.01 0.02 0.01 0.02 0.02 0.03 0.03 0.03 0.02 0.02 0.01 0.02 0.02 0.04 0.05 0.07 0.07 0.09 0.13 0.16 0.16 0.18 0.17 0.10 0.07 0.06 0.05 0.04 0.04 0.03 0.03 0.02 0.02 0.02 0.01 0.01 0.00 0.00 0.00 0.00 0.00 0.00 0.00 0.00 0.00 0.00 0.00 0.00
0.01 0.02 0.02 0.03 0.03 0.04 0.04 0.04 0.03 0.02 0.01 0.02 0.03 0.06 0.09 0.10 0.10 0.09 0.09 0.11 0.15 0.16 0.20 0.23 0.19 0.13 0.11 0.10 0.07 0.06 0.06 0.05 0.04 0.03 0.02 0.01 0.01 0.00 0.00 0.00 0.00 0.00 0.00 0.00 0.00 0.00 0.00 0.00 0.00
0.01 0.02 0.02 0.03 0.03 0.05 0.05 0.05 0.04 0.03 0.02 0.02 0.04 0.07 0.08 0.11 0.11 0.12 0.11 0.11 0.12 0.13 0.17 0.21 0.25 0.24 0.20 0.18 0.16 0.14 0.14 0.12 0.08 0.04 0.03 0.02 0.01 0.01 0.00 0.01 0.01 0.00 0.00 0.00 0.00 0.00 0.00 0.00 0.00
0.01 0.01 0.01 0.02 0.02 0.03 0.03 0.04 0.03 0.03 0.03 0.04 0.05 0.05 0.06 0.08 0.09 0.11 0.12 0.11 0.11 0.12 0.14 0.16 0.20 0.26 0.27 0.26 0.27 0.25 0.26 0.22 0.18 0.12 0.07 0.06 0.05 0.03 0.02 0.02 0.01 0.00 0.00 0.00 0.00 0.00 0.00 0.00 0.00
0.01 0.01 0.01 0.01 0.02 0.02 0.03 0.02 0.02 0.02 0.03 0.04 0.04 0.04 0.04 0.06 0.07 0.07 0.07 0.08 0.09 0.10 0.10 0.12 0.14 0.17 0.22 0.28 0.34 0.32 0.32 0.30 0.25 0.19 0.12 0.09 0.08 0.06 0.05 0.04 0.04 0.03 0.01 0.00 0.00 0.00 0.00 0.00 0.00
0.00 0.00 0.00 0.00 0.01 0.01 0.01 0.01 0.01 0.02 0.02 0.03 0.04 0.05 0.04 0.04 0.04 0.04 0.03 0.05 0.05 0.05 0.06 0.09 0.12 0.13 0.16 0.22 0.30 0.34 0.33 0.33 0.29 0.25 0.16 0.12 0.10 0.11 0.10 0.06 0.07 0.07 0.04 0.02 0.01 0.00 0.00 0.00 0.00
0.00 0.00 0.00 0.00 0.00 0.00 0.00 0.01 0.01 0.01 0.01 0.01 0.02 0.03 0.03 0.03 0.03 0.03 0.02 0.02 0.03 0.04 0.04 0.07 0.09 0.09 0.11 0.16 0.24 0.30 0.29 0.29 0.32 0.33 0.26 0.19 0.16 0.15 0.14 0.12 0.13 0.13 0.08 0.04 0.03 0.01 0.01 0.00 0.00
0.00 0.00 0.00 0.00 0.00 0.00 0.00 0.00 0.00 0.00 0.01 0.01 0.01 0.02 0.02 0.02 0.02 0.02 0.02 0.02 0.02 0.03 0.04 0.05 0.06 0.07 0.10 0.13 0.16 0.18 0.23 0.32 0.41 0.46 0.43 0.36 0.28 0.24 0.21 0.19 0.18 0.14 0.09 0.07 0.06 0.04 0.02 0.01 0.01
0.00 0.00 0.00 0.00 0.00 0.00 0.00 0.00 0.00 0.00 0.00 0.01 0.01 0.01 0.01 0.01 0.02 0.02 0.02 0.02 0.02 0.03 0.03 0.02 0.03 0.05 0.07 0.11 0.13 0.16 0.24 0.32 0.41 0.51 0.54 0.51 0.45 0.38 0.29 0.24 0.22 0.19 0.14 0.11 0.09 0.08 0.05 0.03 0.03
0.00 0.00 0.00 0.00 0.00 0.00 0.00 0.00 0.00 0.00 0.00 0.00 0.01 0.01 0.01 0.01 0.01 0.01 0.01 0.02 0.02 0.04 0.04 0.04 0.03 0.04 0.04 0.06 0.09 0.14 0.18 0.22 0.30 0.37 0.44 0.48 0.49 0.47 0.42 0.38 0.33 0.29 0.24 0.18 0.14 0.12 0.10 0.08 0.07
0.00 0.00 0.00 0.00 0.00 0.00 0.00 0.00 0.00 0.00 0.00 0.00 0.00 0.00 0.01 0.01 0.01 0.01 0.01 0.01 0.02 0.04 0.05 0.05 0.05 0.05 0.05 0.05 0.08 0.10 0.12 0.15 0.20 0.31 0.38 0.41 0.44 0.44 0.44 0.42 0.38 0.32 0.27 0.21 0.17 0.15 0.13 0.11 0.10
0.00 0.00 0.00 0.00 0.00 0.00 0.00 0.00 0.00 0.00 0.00 0.00 0.00 0.00 0.01 0.01 0.02 0.02 0.03 0.04 0.06 0.05 0.06 0.07 0.07 0.06 0.05 0.04 0.06 0.07 0.09 0.11 0.17 0.23 0.27 0.31 0.35 0.38 0.38 0.36 0.37 0.37 0.33 0.27 0.22 0.18 0.15 0.13 0.12
0.00 0.00 0.00 0.00 0.00 0.00 0.00 0.00 0.00 0.00 0.00 0.00 0.00 0.01 0.01 0.01 0.01 0.02 0.06 0.09 0.09 0.06 0.08 0.08 0.07 0.07 0.07 0.05 0.06 0.07 0.07 0.08 0.11 0.12 0.15 0.21 0.26 0.28 0.31 0.31 0.32 0.33 0.32 0.29 0.26 0.23 0.20 0.17 0.15
0.00 0.00 0.00 0.00 0.00 0.00 0.00 0.00 0.00 0.00 0.00 0.01 0.00 0.01 0.01 0.01 0.01 0.03 0.07 0.06 0.07 0.06 0.06 0.06 0.07 0.06 0.06 0.07 0.07 0.05 0.06 0.06 0.06 0.08 0.11 0.14 0.16 0.17 0.19 0.23 0.26 0.28 0.28 0.29 0.30 0.28 0.25 0.22 0.19
0.00 0.00 0.00 0.00 0.00 0.00 0.01 0.01 0.01 0.01 0.01 0.00 0.00 0.01 0.01 0.01 0.02 0.03 0.05 0.05 0.05 0.06 0.06 0.05 0.07 0.08 0.06 0.07 0.07 0.04 0.05 0.06 0.05 0.06 0.08 0.09 0.11 0.13 0.17 0.18 0.20 0.23 0.25 0.27 0.27 0.24 0.23 0.23 0.20
0.00 0.00 0.00 0.00 0.00 0.00 0.02 0.02 0.01 0.01 0.01 0.01 0.00 0.01 0.01 0.02 0.04 0.04 0.05 0.05 0.04 0.05 0.06 0.08 0.09 0.09 0.09 0.10 0.08 0.06 0.06 0.05 0.05 0.06 0.07 0.07 0.08 0.09 0.11 0.11 0.12 0.16 0.20 0.23 0.26 0.25 0.22 0.20 0.18
0.00 0.00 0.00 0.00 0.00 0.00 0.01 0.01 0.01 0.01 0.01 0.01 0.00 0.01 0.01 0.03 0.04 0.03 0.05 0.06 0.04 0.03 0.05 0.07 0.08 0.10 0.13 0.12 0.10 0.08 0.09 0.08 0.07 0.05 0.06 0.06 0.07 0.07 0.08 0.10 0.11 0.15 0.17 0.18 0.19 0.21 0.22 0.21 0.20
0.00 0.00 0.00 0.00 0.00 0.00 0.00 0.01 0.01 0.01 0.01 0.01 0.00 0.01 0.01 0.02 0.02 0.02 0.03 0.04 0.03 0.02 0.03 0.03 0.04 0.06 0.08 0.10 0.14 0.13 0.10 0.07 0.06 0.06 0.07 0.08 0.08 0.09 0.08 0.09 0.10 0.13 0.15 0.17 0.17 0.17 0.18 0.18 0.17
0.00 0.00 0.00 0.00 0.00 0.00 0.00 0.00 0.01 0.01 0.02 0.01 0.01 0.01 0.01 0.02 0.01 0.01 0.01 0.02 0.02 0.02 0.02 0.02 0.04 0.05 0.05 0.05 0.10 0.12 0.08 0.06 0.06 0.07 0.08 0.07 0.08 0.09 0.09 0.13 0.14 0.12 0.13 0.15 0.15 0.17 0.19 0.18 0.16
MSLP
1009.25 1010.47 1011.83 1013.14 1014.24 1014.99 1015.37 1015.40 1015.18 1014.85 1014.55 1014.37 1014.35 1014.46 1014.64 1014.80 1014.84 1014.71 1014.43 1014.03 1013.60 1013.23 1013.00 1012.95 1013.08 1013.35 1013.68 1014.00 1014.27 1014.44 1014.54 1014.58 1014.62 1014.67 1014.78 1014.94 1015.13 1015.33 1015.49 1015.61 1015.67 1015.69 1015.68 1015.68 1015.69 1015.73 1015.78 1015.83 1015.87
1009.56 1010.97 1012.47 1013.84 1014.90 1015.55 1015.75 1015.55 1015.11 1014.56 1014.08 1013.76 1013.66 1013.74 1013.93 1014.12 1014.21 1014.16 1013.95 1013.64 1013.29 1013.01 1012.86 1012.88 1013.07 1013.38 1013.74 1014.09 1014.37 1014.57 1014.70 1014.78 1014.85 1014.94 1015.07 1015.24 1015.42 1015.58 1015.70 1015.76 1015.76 1015.74 1015.70 1015.68 1015.70 1015.74 1015.82 1015.89 1015.95
1010.03 1011.59 1013.17 1014.54 1015.53 1016.04 1016.06 1015.67 1015.03 1014.31 1013.69 1013.28 1013.12 1013.17 1013.36 1013.57 1013.71 1013.70 1013.56 1013.32 1013.06 1012.86 1012.78 1012.87 1013.11 1013.45 1013.83 1014.20 1014.49 1014.70 1014.84 1014.94 1015.03 1015.14 1015.29 1015.45 1015.62 1015.75 1015.82 1015.84 1015.80 1015.74 1015.68 1015.66 1015.69 1015.76 1015.87 1015.98 1016.07
1010.68 1012.32 1013.91 1015.22 1016.10 1016.45 1016.29 1015.74 1014.95 1014.12 1013.43 1012.96 1012.78 1012.82 1013.01 1013.23 1013.39 1013.42 1013.32 1013.13 1012.94 1012.81 1012.80 1012.94 1013.22 1013.58 1013.97 1014.32 1014.60 1014.80 1014.93 1015.02 1015.12 1015.24 1015.39 1015.55 1015.71 1015.83 1015.88 1015.87 1015.82 1015.75 1015.70 1015.69 1015.74 1015.84 1015.98 1016.13 1016.25
1011.47 1013.12 1014.64 1015.83 1016.55 1016.74 1016.43 1015.76 1014.88 1014.01 1013.29 1012.84 1012.66 1012.71 1012.91 1013.13 1013.30 1013.34 1013.27 1013.12 1012.97 1012.89 1012.92 1013.10 1013.39 1013.75 1014.12 1014.44 1014.69 1014.85 1014.95 1015.02 1015.11 1015.23 1015.38 1015.55 1015.71 1015.84 1015.90 1015.91 1015.86 1015.81 1015.78 1015.79 1015.87 1016.00 1016.17 1016.35 1016.49
1012.32 1013.89 1015.27 1016.29 1016.83 1016.87 1016.44 1015.70 1014.81 1013.96 1013.29 1012.89 1012.76 1012.85 1013.06 1013.28 1013.44 1013.48 1013.41 1013.27 1013.14 1013.08 1013.14 1013.32 1013.60 1013.94 1014.27 1014.54 1014.73 1014.84 1014.90 1014.95 1015.02 1015.13 1015.30 1015.49 1015.67 1015.83 1015.92 1015.96 1015.96 1015.94 1015.94 1015.99 1016.09 1016.25 1016.43 1016.61 1016.76
1013.10 1014.52 1015.72 1016.54 1016.91 1016.81 1016.32 1015.57 1014.74 1013.97 1013.41 1013.11 1013.05 1013.19 1013.42 1013.64 1013.78 1013.79 1013.71 1013.56 1013.43 1013.36 1013.41 1013.57 1013.82 1014.11 1014.38 1014.59 1014.73 1014.79 1014.82 1014.84 1014.90 1015.02 1015.19 1015.40 1015.63 1015.82 1015.97 1016.06 1016.10 1016.13 1016.17 1016.24 1016.36 1016.52 1016.70 1016.87 1017.02
1013.73 1014.95 1015.94 1016.56 1016.77 1016.59 1016.09 1015.41 1014.68 1014.07 1013.65 1013.47 1013.51 1013.69 1013.94 1014.15 1014.25 1014.24 1014.12 1013.94 1013.78 1013.69 1013.70 1013.82 1014.02 1014.25 1014.46 1014.61 1014.70 1014.73 1014.72 1014.74 1014.79 1014.92 1015.11 1015.35 1015.61 1015.84 1016.03 1016.17 1016.26 1016.32 1016.39 1016.48 1016.61 1016.76 1016.93 1017.08 1017.21
1014.12 1015.15 1015.93 1016.39 1016.50 1016.29 1015.84 1015.27 1014.72 1014.27 1014.02 1013.97 1014.10 1014.32 1014.56 1014.74 1014.81 1014.75 1014.58 1014.37 1014.16 1014.02 1013.98 1014.04 1014.17 1014.34 1014.49 1014.60 1014.65 1014.66 1014.65 1014.67 1014.74 1014.88 1015.09 1015.35 1015.62 1015.88 1016.10 1016.26 1016.38 1016.47 1016.56 1016.65 1016.77 1016.91 1017.06 1017.19 1017.30
1014.31 1015.15 1015.77 1016.11 1016.18 1016.01 1015.68 1015.28 1014.91 1014.66 1014.56 1014.63 1014.81 1015.04 1015.26 1015.39 1015.40 1015.28 1015.06 1014.80 1014.54 1014.35 1014.25 1014.23 1014.29 1014.39 1014.48 1014.55 1014.59 1014.59 1014.60 1014.63 1014.73 1014.88 1015.11 1015.37 1015.65 1015.91 1016.14 1016.31 1016.43 1016.53 1016.62 1016.71 1016.82 1016.95 1017.08 1017.20 1017.30
1014.35 1015.05 1015.56 1015.86 1015.96 1015.89 1015.72 1015.52 1015.35 1015.27 1015.31 1015.44 1015.64 1015.84 1016.00 1016.06 1015.99 1015.81 1015.54 1015.23 1014.92 1014.67 1014.49 1014.40 1014.38 1014.40 1014.44 1014.48 1014.50 1014.51 1014.55 1014.61 1014.73 1014.90 1015.13 1015.39 1015.65 1015.90 1016.10 1016.26 1016.38 1016.48 1016.56 1016.65 1016.76 1016.89 1017.02 1017.14 1017.24
1014.38 1014.99 1015.45 1015.77 1015.96 1016.05 1016.07 1016.07 1016.09 1016.15 1016.27 1016.42 1016.58 1016.71 1016.77 1016.73 1016.59 1016.34 1016.01 1015.65 1015.29 1014.98 1014.73 1014.55 1014.45 1014.39 1014.37 1014.36 1014.37 1014.40 1014.45 1014.54 1014.68 1014.87 1015.09 1015.33 1015.57 1015.79 1015.97 1016.12 1016.23 1016.32 1016.41 1016.51 1016.63 1016.76 1016.91 1017.05 1017.17
1014.52 1015.09 1015.57 1015.96 1016.28 1016.55 1016.77 1016.96 1017.13 1017.29 1017.43 1017.54 1017.61 1017.62 1017.56 1017.41 1017.17 1016.86 1016.49 1016.08 1015.68 1015.31 1014.99 1014.72 1014.52 1014.37 1014.27 1014.21 1014.19 1014.21 1014.27 1014.38 1014.54 1014.72 1014.94 1015.16 1015.38 1015.57 1015.74 1015.87 1015.99 1016.09 1016.20 1016.33 1016.47 1016.64 1016.81 1016.98 1017.13
1014.90 1015.46 1015.99 1016.48 1016.95 1017.40 1017.81 1018.15 1018.43 1018.63 1018.74 1018.76 1018.70 1018.56 1018.36 1018.09 1017.76 1017.39 1016.97 1016.54 1016.10 1015.67 1015.27 1014.91 1014.60 1014.34 1014.15 1014.01 1013.94 1013.93 1013.98 1014.08 1014.23 1014.42 1014.62 1014.83 1015.03 1015.22 1015.39 1015.54 1015.69 1015.83 1015.99 1016.16 1016.35 1016.56 1016.77 1016.97 1017.16
1015.56 1016.13 1016.71 1017.31 1017.92 1018.52 1019.07 1019.54 1019.87 1020.06 1020.10 1020.00 1019.79 1019.49 1019.14 1018.75 1018.34 1017.92 1017.47 1017.02 1016.55 1016.07 1015.59 1015.13 1014.70 1014.33 1014.02 1013.79 1013.64 1013.57 1013.58 1013.65 1013.78 1013.95 1014.14 1014.34 1014.55 1014.75 1014.95 1015.15 1015.36 1015.57 1015.80 1016.04 1016.29 1016.55 1016.80 1017.03 1017.24
1016.48 1017.05 1017.66 1018.34 1019.06 1019.78 1020.44 1020.97 1021.33 1021.47 1021.41 1021.17 1020.81 1020.35 1019.87 1019.38 1018.90 1018.44 1017.98 1017.51 1017.02 1016.49 1015.94 1015.38 1014.83 1014.33 1013.90 1013.55 1013.30 1013.15 1013.09 1013.11 1013.20 1013.34 1013.52 1013.73 1013.95 1014.20 1014.46 1014.73 1015.02 1015.33 1015.64 1015.96 1016.28 1016.58 1016.87 1017.13 1017.35
1017.57 1018.10 1018.73 1019.46 1020.25 1021.04 1021.76 1022.32 1022.65 1022.73 1022.57 1022.21 1021.70 1021.12 1020.52 1019.95 1019.43 1018.95 1018.48 1018.00 1017.49 1016.92 1016.30 1015.65 1015.00 1014.37 1013.82 1013.35 1012.99 1012.74 1012.59 1012.55 1012.58 1012.68 1012.84 1013.05 1013.30 1013.59 1013.92 1014.29 1014.68 1015.08 1015.49 1015.89 1016.27 1016.62 1016.94 1017.21 1017.45
1018.68 1019.17 1019.79 1020.53 1021.35 1022.18 1022.91 1023.47 1023.77 1023.78 1023.52 1023.04 1022.43 1021.75 1021.07 1020.46 1019.91 1019.42 1018.95 1018.47 1017.93 1017.33 1016.66 1015.94 1015.19 1014.46 1013.80 1013.22 1012.75 1012.40 1012.16 1012.03 1012.00 1012.05 1012.17 1012.37 1012.64 1012.98 1013.38 1013.83 1014.31 1014.81 1015.30 1015.77 1016.20 1016.59 1016.93 1017.22 1017.46
1019.71 1020.13 1020.72 1021.45 1022.28 1023.11 1023.84 1024.37 1024.62 1024.56 1024.23 1023.67 1022.98 1022.24 1021.52 1020.88 1020.32 1019.82 1019.36 1018.87 1018.33 1017.70 1016.99 1016.21 1015.40 1014.60 1013.86 1013.20 1012.64 1012.20 1011.87 1011.65 1011.54 1011.52 1011.60 1011.77 1012.05 1012.41 1012.85 1013.36 1013.92 1014.48 1015.04 1015.56 1016.03 1016.45 1016.81 1017.11 1017.36
1020.53 1020.91 1021.47 1022.19 1023.01 1023.83 1024.54 1025.03 1025.23 1025.12 1024.73 1024.12 1023.39 1022.61 1021.88 1021.22 1020.66 1020.17 1019.70 1019.21 1018.65 1018.01 1017.27 1016.47 1015.63 1014.79 1014.00 1013.29 1012.67 1012.16 1011.75 1011.46 1011.26 1011.16 1011.18 1011.31 1011.55 1011.90 1012.36 1012.90 1013.49 1014.09 1014.68 1015.23 1015.73 1016.17 1016.54 1016.86 1017.13
1021.14 1021.49 1022.05 1022.76 1023.58 1024.38 1025.06 1025.51 1025.67 1025.51 1025.07 1024.44 1023.68 1022.90 1022.16 1021.50 1020.94 1020.44 1019.96 1019.46 1018.89 1018.24 1017.50 1016.69 1015.84 1015.01 1014.21 1013.49 1012.85 1012.30 1011.83 1011.46 1011.19 1011.01 1010.94 1011.00 1011.18 1011.49 1011.92 1012.45 1013.03 1013.64 1014.24 1014.80 1015.30 1015.75 1016.14 1016.48 1016.79
1021.54 1021.92 1022.50 1023.24 1024.06 1024.84 1025.49 1025.89 1026.00 1025.80 1025.34 1024.68 1023.92 1023.14 1022.40 1021.74 1021.17 1020.66 1020.16 1019.64 1019.05 1018.39 1017.65 1016.86 1016.04 1015.24 1014.47 1013.77 1013.13 1012.57 1012.07 1011.65 1011.30 1011.04 1010.88 1010.85 1010.95 1011.19 1011.56 1012.03 1012.58 1013.16 1013.73 1014.28 1014.79 1015.24 1015.64 1016.01 1016.36
1021.84 1022.28 1022.92 1023.70 1024.54 1025.31 1025.91 1026.27 1026.32 1026.08 1025.58 1024.90 1024.13 1023.35 1022.61 1021.95 1021.36 1020.83 1020.30 1019.75 1019.15 1018.48 1017.75 1016.99 1016.22 1015.47 1014.75 1014.09 1013.49 1012.93 1012.42 1011.96 1011.55 1011.21 1010.97 1010.84 1010.85 1011.00 1011.28 1011.68 1012.16 1012.69 1013.23 1013.75 1014.24 1014.69 1015.11 1015.51 1015.90
1022.14 1022.67 1023.39 1024.23 1025.07 1025.82 1026.38 1026.67 1026.66 1026.35 1025.81 1025.11 1024.33 1023.54 1022.80 1022.13 1021.53 1020.96 1020.41 1019.83 1019.21 1018.54 1017.83 1017.10 1016.37 1015.68 1015.03 1014.43 1013.87 1013.33 1012.82 1012.33 1011.88 1011.48 1011.15 1010.94 1010.85 1010.91 1011.10 1011.41 1011.82 1012.28 1012.77 1013.26 1013.73 1014.18 1014.60 1015.02 1015.43
1022.50 1023.15 1023.95 1024.83 1025.68 1026.39 1026.88 1027.09 1027.00 1026.62 1026.03 1025.30 1024.51 1023.72 1022.97 1022.29 1021.67 1021.08 1020.50 1019.90 1019.26 1018.59 1017.90 1017.20 1016.53 1015.90 1015.31 1014.76 1014.24 1013.73 1013.23 1012.73 1012.24 1011.79 1011.40 1011.11 1010.94 1010.91 1011.01 1011.24 1011.57 1011.97 1012.41 1012.86 1013.30 1013.73 1014.15 1014.56 1014.98
1022.96 1023.71 1024.59 1025.49 1026.31 1026.96 1027.36 1027.47 1027.29 1026.84 1026.20 1025.44 1024.63 1023.84 1023.10 1022.42 1021.79 1021.19 1020.59 1019.98 1019.34 1018.67 1018.00 1017.35 1016.72 1016.14 1015.60 1015.09 1014.60 1014.11 1013.61 1013.10 1012.59 1012.10 1011.67 1011.32 1011.09 1010.99 1011.02 1011.18 1011.44 1011.77 1012.15 1012.56 1012.97 1013.37 1013.77 1014.17 1014.57
1023.50 1024.33 1025.23 1026.12 1026.89 1027.44 1027.74 1027.73 1027.46 1026.94 1026.26 1025.48 1024.68 1023.90 1023.18 1022.51 1021.89 1021.29 1020.69 1020.08 1019.45 1018.81 1018.17 1017.55 1016.97 1016.42 1015.92 1015.44 1014.96 1014.48 1013.98 1013.45 1012.92 1012.41 1011.95 1011.56 1011.28 1011.13 1011.11 1011.20 1011.41 1011.68 1012.01 1012.37 1012.73 1013.10 1013.46 1013.83 1014.19
1024.05 1024.91 1025.80 1026.62 1027.29 1027.73 1027.91 1027.80 1027.44 1026.87 1026.17 1025.40 1024.62 1023.88 1023.19 1022.56 1021.96 1021.39 1020.81 1020.23 1019.62 1019.01 1018.41 1017.83 1017.28 1016.77 1016.29 1015.82 1015.35 1014.85 1014.34 1013.80 1013.25 1012.72 1012.23 1011.83 1011.52 1011.33 1011.27 1011.32 1011.47 1011.69 1011.96 1012.27 1012.58 1012.90 1013.22 1013.53 1013.85
1024.52 1025.35 1026.17 1026.89 1027.43 1027.75 1027.80 1027.60 1027.18 1026.60 1025.91 1025.18 1024.46 1023.78 1023.15 1022.57 1022.02 1021.48 1020.94 1020.39 1019.83 1019.27 1018.72 1018.19 1017.68 1017.19 1016.72 1016.25 1015.77 1015.26 1014.72 1014.16 1013.59 1013.05 1012.55 1012.13 1011.81 1011.59 1011.50 1011.51 1011.61 1011.78 1011.99 1012.24 1012.50 1012.76 1013.02 1013.28 1013.55
1024.83 1025.59 1026.29 1026.87 1027.27 1027.45 1027.41 1027.15 1026.71 1026.14 1025.51 1024.86 1024.22 1023.62 1023.06 1022.55 1022.05 1021.56 1021.07 1020.57 1020.07 1019.56 1019.07 1018.59 1018.12 1017.67 1017.21 1016.74 1016.24 1015.71 1015.15 1014.56 1013.98 1013.42 1012.91 1012.48 1012.15 1011.92 1011.80 1011.77 1011.82 1011.93 1012.08 1012.27 1012.46 1012.66 1012.87 1013.08 1013.29
Thickness
5834 5832 5827 5812 5787 5765 5765 5777 5785 5790 5793 5800 5802 5797 5790 5784 5779 5777 5794 5803 5802 5799 5796 5794 5791 5788 5785 5782 5780 5778 5776 5775 5773 5772 5771 5770 5770 5769 5769 5769 5769 5769 5769 5769 5769 5769 5769 5770 5771
5836 5832 5820 5798 5771 5752 5762 5780 5786 5793 5801 5804 5803 5798 5791 5788 5794 5794 5798 5802 5802 5800 5797 5794 5791 5788 5786 5783 5781 5779 5777 5775 5773 5772 5771 5770 5769 5769 5768 5768 5768 5767 5767 5767 5767 5767 5767 5768 5768
5837 5832 5809 5786 5769 5759 5771 5787 5793 5801 5807 5805 5798 5797 5793 5790 5796 5798 5803 5804 5802 5799 5797 5794 5792 5789 5786 5784 5781 5779 5777 5775 5774 5772 5771 5770 5769 5768 5768 5767 5767 5766 5766 5766 5766 5766 5766 5766 5766
5833 5818 5801 5781 5773 5779 5786 5794 5799 5801 5805 5805 5799 5791 5796 5804 5804 5805 5806 5804 5801 5799 5797 5794 5792 5789 5786 5784 5782 5780 5778 5776 5774 5773 5771 5770 5769 5768 5767 5767 5766 5765 5765 5764 5764 5764 5764 5764 5764
5828 5806 5783 5770 5776 5788 5796 5802 5804 5799 5798 5799 5797 5788 5790 5803 5809 5808 5806 5803 5800 5798 5796 5794 5791 5789 5786 5784 5782 5780 5778 5776 5775 5773 5772 5770 5769 5768 5767 5767 5766 5765 5764 5764 5763 5763 5762 5762 5762
5811 5796 5768 5760 5772 5789 5799 5804 5804 5798 5797 5798 5795 5787 5788 5801 5804 5804 5804 5801 5799 5797 5795 5793 5790 5788 5786 5784 5782 5780 5778 5776 5775 5773 5772 5771 5770 5768 5767 5767 5766 5765 5764 5763 5762 5762 5761 5761 5761
5804 5786 5768 5767 5770 5782 5796 5805 5799 5794 5793 5795 5797 5785 5787 5796 5802 5803 5801 5799 5797 5795 5793 5791 5789 5787 5785 5783 5781 5779 5778 5776 5775 5773 5772 5771 5769 5768 5767 5766 5765 5764 5763 5762 5761 5761 5760 5760 5760
5810 5788 5771 5767 5770 5777 5795 5802 5802 5797 5793 5802 5799 5783 5782 5794 5800 5799 5797 5794 5792 5791 5789 5788 5787 5785 5784 5782 5780 5779 5777 5775 5774 5773 5771 5770 5769 5768 5766 5765 5764 5764 5763 5762 5761 5760 5759 5759 5759
5812 5779 5765 5771 5773 5778 5792 5794 5798 5802 5795 5795 5795 5792 5794 5799 5797 5792 5788 5786 5786 5786 5786 5785 5784 5783 5781 5780 5779 5777 5776 5775 5773 5772 5770 5769 5768 5766 5765 5764 5763 5763 5762 5761 5760 5759 5758 5758 5757
5798 5771 5777 5785 5785 5781 5784 5785 5789 5788 5781 5780 5784 5789 5794 5792 5787 5782 5779 5778 5779 5780 5782 5782 5781 5780 5778 5777 5776 5775 5774 5773 5772 5770 5769 5768 5766 5765 5764 5763 5762 5762 5761 5760 5759 5758 5757 5756 5756
5797 5782 5786 5788 5789 5787 5782 5778 5779 5773 5762 5765 5768 5774 5779 5779 5777 5774 5773 5773 5774 5776 5778 5779 5778 5777 5776 5775 5774 5773 5772 5771 5769 5768 5767 5766 5764 5763 5762 5761 5760 5760 5759 5758 5757 5756 5755 5755 5754
5792 5787 5786 5785 5789 5784 5778 5772 5764 5757 5753 5762 5766 5768 5768 5766 5765 5764 5764 5766 5769 5771 5773 5775 5776 5774 5773 5772 5771 5770 5769 5768 5767 5766 5765 5763 5762 5761 5760 5759 5758 5758 5757 5756 5755 5754 5754 5753 5752
5787 5782 5784 5782 5780 5774 5768 5759 5753 5746 5752 5757 5759 5757 5754 5753 5754 5756 5758 5760 5762 5763 5766 5769 5771 5771 5770 5769 5768 5767 5766 5765 5764 5764 5763 5761 5760 5759 5758 5757 5756 5756 5755 5753 5752 5752 5751 5751 5751
5785 5779 5776 5774 5771 5764 5754 5745 5741 5734 5742 5745 5745 5742 5741 5741 5743 5745 5747 5749 5751 5754 5758 5762 5764 5766 5766 5765 5764 5764 5763 5763 5762 5761 5760 5759 5759 5758 5757 5756 5755 5754 5753 5752 5751 5750 5749 5749 5749
5786 5772 5764 5761 5762 5758 5751 5724 5719 5724 5730 5729 5729 5729 5730 5731 5733 5733 5735 5738 5741 5745 5749 5753 5757 5760 5761 5761 5761 5761 5760 5759 5758 5758 5757 5757 5757 5756 5755 5754 5753 5753 5751 5750 5748 5747 5746 5746 5746
5771 5755 5739 5745 5749 5747 5734 5699 5707 5716 5717 5714 5714 5715 5716 5719 5721 5723 5725 5728 5731 5735 5739 5743 5748 5751 5754 5756 5757 5757 5757 5756 5756 5755 5754 5754 5754 5754 5752 5751 5751 5751 5749 5747 5746 5744 5743 5742 5742
5743 5733 5728 5729 5733 5732 5715 5692 5698 5706 5705 5702 5701 5701 5703 5706 5710 5712 5715 5718 5721 5724 5727 5731 5736 5740 5744 5748 5751 5752 5754 5753 5752 5752 5751 5751 5751 5750 5749 5748 5748 5747 5746 5744 5744 5742 5740 5738 5738
5731 5726 5720 5714 5714 5712 5698 5685 5689 5693 5694 5690 5689 5690 5691 5694 5696 5701 5704 5707 5709 5712 5716 5719 5723 5728 5733 5738 5742 5744 5747 5749 5749 5749 5749 5749 5748 5748 5746 5745 5745 5743 5742 5740 5739 5738 5737 5736 5735
5735 5723 5713 5709 5710 5697 5684 5678 5679 5683 5683 5681 5679 5679 5680 5682 5686 5690 5693 5695 5698 5700 5703 5706 5710 5715 5720 5725 5730 5734 5737 5742 5745 5745 5746 5745 5745 5744 5743 5742 5740 5739 5738 5737 5736 5734 5732 5730 5730
5726 5713 5706 5702 5703 5690 5675 5671 5674 5674 5672 5670 5668 5668 5669 5673 5677 5680 5682 5684 5686 5688 5691 5694 5697 5702 5707 5712 5718 5724 5729 5734 5739 5741 5741 5741 5740 5739 5739 5738 5737 5735 5734 5732 5731 5730 5728 5726 5726
5717 5710 5704 5696 5690 5682 5673 5664 5661 5664 5664 5664 5662 5660 5661 5663 5664 5667 5670 5672 5674 5676 5678 5681 5684 5689 5694 5700 5707 5713 5718 5723 5727 5731 5733 5735 5736 5735 5734 5734 5733 5731 5730 5728 5728 5727 5726 5722 5721
5706 5713 5707 5696 5677 5661 5664 5647 5649 5649 5650 5653 5652 5652 5652 5653 5654 5656 5658 5660 5663 5665 5668 5670 5673 5677 5683 5689 5694 5700 5705 5710 5716 5720 5724 5728 5731 5731 5730 5729 5729 5728 5727 5726 5725 5724 5724 5722 5718
5708 5707 5700 5690 5672 5655 5649 5641 5637 5640 5638 5641 5643 5644 5644 5646 5646 5647 5649 5650 5653 5656 5659 5661 5664 5668 5673 5678 5683 5688 5694 5700 5705 5710 5714 5719 5722 5724 5724 5724 5725 5724 5723 5722 5721 5720 5720 5719 5717
5707 5698 5686 5671 5659 5642 5638 5632 5626 5629 5630 5632 5635 5637 5637 5638 5639 5640 5642 5643 5646 5649 5651 5653 5655 5659 5663 5668 5673 5677 5682 5688 5693 5698 5703 5709 5712 5715 5716 5718 5719 5720 5719 5718 5717 5717 5716 5715 5714
5694 5679 5661 5656 5637 5633 5637 5628 5624 5632 5632 5629 5628 5629 5631 5631 5631 5633 5634 5636 5638 5641 5643 5645 5647 5651 5655 5659 5663 5668 5673 5678 5683 5688 5694 5699 5702 5705 5709 5711 5713 5714 5714 5714 5713 5712 5711 5710 5709
5685 5675 5655 5646 5634 5627 5631 5624 5625 5634 5632 5629 5627 5625 5625 5626 5626 5628 5629 5630 5632 5634 5636 5639 5641 5644 5648 5652 5655 5659 5664 5669 5674 5680 5686 5690 5694 5698 5701 5704 5706 5707 5709 5709 5709 5708 5707 5706 5705
5686 5667 5663 5642 5634 5624 5622 5624 5628 5632 5627 5626 5624 5622 5621 5621 5623 5624 5626 5626 5627 5629 5631 5633 5635 5637 5641 5644 5648 5652 5656 5661 5666 5672 5677 5682 5687 5691 5694 5696 5698 5700 5702 5702 5702 5702 5702 5701 5701
5683 5669 5652 5640 5628 5620 5620 5618 5613 5621 5620 5620 5618 5617 5618 5619 5620 5621 5622 5623 5625 5626 5627 5630 5631 5633 5636 5639 5642 5646 5650 5654 5660 5665 5670 5675 5679 5683 5685 5688 5690 5693 5695 5695 5696 5696 5696 5695 5695
5677 5666 5645 5631 5627 5616 5610 5613 5625 5622 5620 5615 5615 5616 5616 5616 5617 5619 5620 5621 5623 5624 5625 5626 5627 5629 5632 5635 5638 5642 5645 5649 5654 5659 5663 5668 5672 5675 5678 5680 5682 5685 5687 5688 5689 5689 5689 5689 5688
5680 5667 5651 5637 5625 5615 5607 5610 5631 5625 5620 5617 5615 5616 5617 5617 5618 5619 5620 5620 5621 5621 5622 5622 5623 5626 5628 5631 5634 5637 5640 5645 5648 5652 5657 5661 5665 5668 5670 5673 5675 5677 5679 5680 5681 5681 5682 5681 5681